Regional Weather Roundup
Issued by NWS Huntsville, AL

Home | Current Version | Previous Version | Text Only | Print | Product List | Glossary On
Versions: 1 2 3 4 5 6 7 8 9 10 11 12 13 14 15 16 17 18 19 20 21 22 23 24 25 26 27
000
ASUS44 KHUN 202110
RWRHUN

WEATHER ROUNDUP FOR THE TENNESSEE VALLEY
NATIONAL WEATHER SERVICE HUNTSVILLE AL
400 PM CDT SUN AUG 20 2017

ALZ001>004-202200-
NORTHWEST ALABAMA

CITY           SKY/WX    TMP DP  RH WIND       PRES   REMARKS
COURTLAND HCN    N/A     91 N/A N/A NE5         N/A
RUSSELLVILLE     N/A     91 N/A N/A MISG        N/A
SHOALS AIRPORT SUNNY     95  65  37 VRB5      30.04F HX  97
SHOALS TVA RES   N/A     93 N/A N/A MISG        N/A
$$

ALZ005>007-016-202200-
NORTH CENTRAL ALABAMA

CITY           SKY/WX    TMP DP  RH WIND       PRES   REMARKS
CULLMAN AG STN   N/A     90 N/A N/A CALM        N/A
DECATUR AP     SUNNY     94  68  42 CALM      30.05F HX  98
HUNTSVILLE AP  MOSUNNY   95  70  44 CALM      30.05S HX 101
MERIDIANVILLE  SUNNY     90  64  43 CALM      30.06S HX  91
REDSTONE ARSN  MOSUNNY   91  70  50 CALM      30.04S HX  97
VINEMONT AP    FAIR     N/A N/A N/A CALM      30.09F
$$

ALZ008>010-202200-
NORTHEAST ALABAMA

CITY           SKY/WX    TMP DP  RH WIND       PRES   REMARKS
ALBERTVILLE    CLOUDY    88  77  70 CALM      30.07S HX 100
FORT PAYNE     MOSUNNY   90  63  40 E3        30.06S HX  90
SCOTTSBORO HCN   N/A     91 N/A N/A MISG        N/A
$$

TNZ076-096-097-202200-
SOUTHEASTERN MIDDLE TENNESSEE

CITY           SKY/WX    TMP DP  RH WIND       PRES   REMARKS
TULLAHOMA      SUNNY     91  61  35 SW5       30.09S HX  91
WINCHESTER     MOSUNNY   91  68  46 CALM      30.08S HX  95
$$

...SURROUNDING SITES...

CITY           SKY/WX    TMP DP  RH WIND       PRES   REMARKS
ATLANTA        MOSUNNY   90  65  43 E6        30.07F HX  92
ANNISTON       MOSUNNY   91  68  46 NE5       30.05F HX  95
BIRMINGHAM     MOSUNNY   93  71  48 S10       30.06F HX 100
CHATTANOOGA    MOSUNNY   92  66  42 CALM      30.06F HX  94
DALTON         NOT AVBL
GADSDEN        SUNNY     90  71  53 E6        30.05F HX  96
GOLDEN TRNGL   PTSUNNY   99  72  41 CALM      29.97F HX 107
HALEYVILLE     FAIR      92  71  50 N3        30.08S HX  98
JACKSON TN     CLOUDY    92  73  53 CALM      30.03S HX 100
MEMPHIS        TSTM      76  72  87 S8G22     30.05R FOG
NASHVILLE      MOSUNNY   94  57  28 E5        30.06S HX  92
ROME           SUNNY     94  67  41 W3        30.05F HX  97
SAVANNAH       SUNNY     95  64  36 N6        30.01F HX  97
SELMER         SUNNY     93  66  40 VRB5      30.04R HX  96
TUPELO         LGT RAIN  87  76  69 CALM      30.01F HX  97
TUSCALOOSA     PTSUNNY   89  74  60 SE12G18   30.01F HX  98
$$

...GULF COAST WEATHER...

CITY           SKY/WX    TMP DP  RH WIND       PRES   REMARKS
GULFPORT       SUNNY     91  75  59 S7        29.99F HX 101
PASCAGOULA     MOSUNNY   91  75  59 S6        29.99F HX 101
MOBILE         MOSUNNY   94  69  44 NE5       30.01F HX  99
GULF SHORES    CLEAR     89  76  63 S8        30.00S HX 100
PENSACOLA      MOSUNNY   90  75  61 S9        29.99F HX 100
DESTIN         SUNNY     94  70  45 SW6       29.99F HX 100
PANAMA CITY    SUNNY     90  77  65 SW10      29.99F HX 103
APPALACHICOLA  MOSUNNY   89  78  70 S12       29.99F HX 103
$$





USA.gov is the U.S. government's official web portal to all federal, state and local government web resources and services.